This is the latest recevied weather packets stored in our database for station/object K7KAZ. If no packets are shown the sender has not sent any weather packets the latest 10 day(s).
| Time | Temp. | Humidity | Pressure | Rain* | Wind** | Luminosity | Snow |
|---|---|---|---|---|---|---|---|
| 1777815359 | 25° C | 33% | 1014.3 hPa | 0 mm | - | 39 W/m² | - |
| 1777815055 | 25° C | 33% | 1014 hPa | 0 mm | - | 32 W/m² | - |
| 1777814752 | 25° C | 33% | 1014.3 hPa | 0 mm | - | 29 W/m² | - |
| 1777814449 | 25° C | 33% | 1013.9 hPa | 0 mm | - | 24 W/m² | - |
| 1777814146 | 25° C | 33% | 1014 hPa | 0 mm | - | 21 W/m² | - |
| 1777813843 | 25° C | 33% | 1013.9 hPa | 0 mm | - | 18 W/m² | - |
| 1777813540 | 25° C | 33% | 1013.7 hPa | 0 mm | - | 12 W/m² | - |
| 1777813238 | 25° C | 33% | 1013.7 hPa | 0 mm | - | 9 W/m² | - |
| 1777812935 | 25° C | 33% | 1013.8 hPa | 0 mm | - | 6 W/m² | - |
| 1777812632 | 25° C | 33% | 1013.9 hPa | 0 mm | - | 2 W/m² | - |
| 1777812328 | 25° C | 33% | 1013.8 hPa | 0 mm | - | 0 W/m² | - |
| 1777812027 | 25° C | 33% | 1013.7 hPa | 0 mm | - | 0 W/m² | - |
| 1777811726 | 25° C | 33% | 1013.8 hPa | 0 mm | - | 0 W/m² | - |
| 1777811421 | 25° C | 33% | 1013.6 hPa | 0 mm | - | 0 W/m² | - |
| 1777811118 | 24.44° C | 33% | 1013.6 hPa | 0 mm | - | 0 W/m² | - |
| 1777810815 | 24.44° C | 33% | 1013.6 hPa | 0 mm | - | 0 W/m² | - |
| 1777810512 | 24.44° C | 32% | 1013.5 hPa | 0 mm | - | 0 W/m² | - |
| 1777810209 | 24.44° C | 32% | 1013.4 hPa | 0 mm | - | 0 W/m² | - |
| 1777809905 | 24.44° C | 32% | 1013.4 hPa | 0 mm | - | 0 W/m² | - |
| 1777809603 | 24.44° C | 32% | 1013.6 hPa | 0 mm | - | 0 W/m² | - |
| 1777809300 | 25° C | 32% | 1013.5 hPa | 0 mm | - | 0 W/m² | - |
| 1777808997 | 25° C | 32% | 1013.6 hPa | 0 mm | - | 0 W/m² | - |
| 1777808695 | 25° C | 32% | 1013.4 hPa | 0 mm | - | 0 W/m² | - |
| 1777808391 | 25° C | 31% | 1013.4 hPa | 0 mm | - | 0 W/m² | - |
| 1777808090 | 25° C | 31% | 1013.7 hPa | 0 mm | - | 0 W/m² | - |
* Rain latest hour (hover to see other rain measurements)
** Current wind speed in m/s (hover to see current wind gust speed)